,,,PA_Meas_PMT16A,,PR_Meas_QMR101_102,,RH_Meas_QMH101,,SR_Meas_QMS101,,TA_Meas_QMH101,,GenWind,,GenWind,
date,time,status,PA,status,PR,status,RH,status,SR,status,TA,status,DirAvg,status,SpdAvg,
2008-10-22, 00:00:04,VALID,1002.73,VALID,0,VALID,93.9344,VALID,0.100563,VALID,24.7724,VALID,26,VALID,0.0675781,
2008-10-22, 00:01:04,VALID,1002.68,VALID,0,VALID,93.9954,VALID,0.100563,VALID,24.7919,VALID,26,VALID,0,
2008-10-22, 00:02:04,VALID,1002.67,VALID,0,VALID,94.087,VALID,0.100563,VALID,24.8327,VALID,26,VALID,0,
2008-10-22, 00:03:04,VALID,1002.66,VALID,0,VALID,94.0946,VALID,0.100563,VALID,24.8522,VALID,25,VALID,0.574609,
2008-10-22, 00:04:04,VALID,1002.63,VALID,0,VALID,94.0031,VALID,0.100563,VALID,24.8716,VALID,25,VALID,0.514844,
2008-10-22, 00:05:04,VALID,1002.63,VALID,0,VALID,93.8734,VALID,0.100563,VALID,24.8308,VALID,25,VALID,0.223438,
2008-10-22, 00:06:04,VALID,1002.62,VALID,0,VALID,93.8123,VALID,0.100563,VALID,24.8522,VALID,25,VALID,0.305078,
2008-10-22, 00:07:04,VALID,1002.6,VALID,0,VALID,93.8657,VALID,0.100563,VALID,24.8327,VALID,25,VALID,0,
2008-10-22, 00:08:04,VALID,1002.56,VALID,0,VALID,93.9039,VALID,0,VALID,24.8113,VALID,25,VALID,0,
2008-10-22, 00:09:04,VALID,1002.57,VALID,0,VALID,93.8581,VALID,0,VALID,24.8346,VALID,25,VALID,0,
2008-10-22, 00:10:04,VALID,1002.53,VALID,0,VALID,93.881,VALID,0,VALID,24.8151,VALID,25,VALID,0,
2008-10-22, 00:11:04,VALID,1002.54,VALID,0,VALID,93.9039,VALID,0,VALID,24.7956,VALID,25,VALID,0,
2008-10-22, 00:12:04,VALID,1002.52,VALID,0,VALID,93.942,VALID,0,VALID,24.7937,VALID,25,VALID,0,
2008-10-22, 00:13:04,VALID,1002.53,VALID,0,VALID,93.9878,VALID,0,VALID,24.7937,VALID,25,VALID,0,
2008-10-22, 00:14:04,VALID,1002.5,VALID,0,VALID,94.0336,VALID,0,VALID,24.8151,VALID,25,VALID,0,
2008-10-22, 00:15:04,VALID,1002.47,VALID,0,VALID,94.087,VALID,0,VALID,24.7937,VALID,25,VALID,0,
2008-10-22, 00:16:04,VALID,1002.46,VALID,0,VALID,94.1099,VALID,0,VALID,24.7937,VALID,23,VALID,0,
2008-10-22, 00:17:04,VALID,1002.41,VALID,0,VALID,94.1328,VALID,0.100563,VALID,24.8132,VALID,21,VALID,0,
2008-10-22, 00:18:04,VALID,1002.41,VALID,0,VALID,94.1862,VALID,0,VALID,24.8327,VALID,24,VALID,0,
2008-10-22, 00:19:04,VALID,1002.4,VALID,0,VALID,94.293,VALID,0,VALID,24.9319,VALID,111,VALID,0.818359,
2008-10-22, 00:20:04,VALID,1002.37,VALID,0,VALID,94.2548,VALID,0,VALID,24.9495,VALID,98,VALID,0.507031,
2008-10-22, 00:21:04,VALID,1002.34,VALID,0,VALID,94.3616,VALID,0.100563,VALID,25.1053,VALID,91,VALID,0.865234,
2008-10-22, 00:22:04,VALID,1002.33,VALID,0,VALID,94.0031,VALID,0,VALID,25.263,VALID,114,VALID,0.410937,
2008-10-22, 00:23:04,VALID,1002.33,VALID,0,VALID,93.5758,VALID,0,VALID,25.3604,VALID,113,VALID,0.923437,
2008-10-22, 00:24:04,VALID,1002.34,VALID,0,VALID,93.1257,VALID,0,VALID,25.4188,VALID,102,VALID,0.421875,
2008-10-22, 00:25:04,VALID,1002.32,VALID,0,VALID,92.7824,VALID,0,VALID,25.4383,VALID,105,VALID,0.629687,
2008-10-22, 00:26:04,VALID,1002.33,VALID,0,VALID,92.5002,VALID,0,VALID,25.4558,VALID,106,VALID,0.685547,
2008-10-22, 00:27:04,VALID,1002.34,VALID,0,VALID,92.2179,VALID,0,VALID,25.5727,VALID,80,VALID,0.760547,
2008-10-22, 00:28:04,VALID,1002.33,VALID,0,VALID,91.7678,VALID,0,VALID,25.6506,VALID,118,VALID,0.751172,
2008-10-22, 00:29:04,VALID,1002.31,VALID,0,VALID,91.2109,VALID,0,VALID,25.7674,VALID,105,VALID,1.32383,
2008-10-22, 00:30:04,VALID,1002.27,VALID,0,VALID,90.5014,VALID,0,VALID,25.9252,VALID,109,VALID,0.671094,
2008-10-22, 00:31:04,VALID,1002.27,VALID,0,VALID,89.8606,VALID,0,VALID,25.9817,VALID,96,VALID,0.649219,
2008-10-22, 00:32:04,VALID,1002.22,VALID,0,VALID,89.4563,VALID,0,VALID,26.0031,VALID,106,VALID,0.607031,
2008-10-22, 00:33:04,VALID,1002.24,VALID,0,VALID,89.2808,VALID,0,VALID,25.9836,VALID,103,VALID,0.53125,
2008-10-22, 00:34:04,VALID,1002.23,VALID,0,VALID,89.2884,VALID,0,VALID,25.9447,VALID,103,VALID,0.266406,
2008-10-22, 00:35:04,VALID,1002.18,VALID,0,VALID,89.3113,VALID,0,VALID,25.9057,VALID,103,VALID,0.0226563,
2008-10-22, 00:36:04,VALID,1002.17,VALID,0,VALID,89.3189,VALID,0,VALID,25.8473,VALID,30,VALID,0.571875,
2008-10-22, 00:37:04,VALID,1002.12,VALID,0,VALID,89.6317,VALID,0,VALID,25.7869,VALID,60,VALID,0.348828,
2008-10-22, 00:38:04,VALID,1002.1,VALID,0,VALID,89.7767,VALID,0.100563,VALID,25.748,VALID,60,VALID,0.258984,
2008-10-22, 00:39:04,VALID,1002.04,VALID,0,VALID,90.0208,VALID,0,VALID,25.7908,VALID,120,VALID,1.01094,
2008-10-22, 00:40:04,VALID,1002.01,VALID,0,VALID,89.8987,VALID,0,VALID,25.7694,VALID,108,VALID,0.596484,
2008-10-22, 00:41:04,VALID,1002.01,VALID,0,VALID,89.8301,VALID,0,VALID,25.748,VALID,108,VALID,0.149219,
2008-10-22, 00:42:04,VALID,1001.98,VALID,0,VALID,89.7843,VALID,0,VALID,25.7285,VALID,108,VALID,0.414844,
2008-10-22, 00:43:04,VALID,1001.92,VALID,0,VALID,89.9598,VALID,0,VALID,25.7519,VALID,84,VALID,0.386719,
2008-10-22, 00:44:04,VALID,1001.91,VALID,0,VALID,89.7004,VALID,0,VALID,25.6506,VALID,84,VALID,0.182812,
2008-10-22, 00:45:04,VALID,1001.92,VALID,0,VALID,90.0208,VALID,0,VALID,25.6136,VALID,84,VALID,0.336328,
2008-10-22, 00:46:04,VALID,1001.89,VALID,0,VALID,90.0818,VALID,0,VALID,25.5142,VALID,84,VALID,0.395312,
2008-10-22, 00:47:04,VALID,1001.87,VALID,0,VALID,90.2497,VALID,0,VALID,25.4772,VALID,84,VALID,0.335156,
2008-10-22, 00:48:04,VALID,1001.87,VALID,0,VALID,90.5548,VALID,0,VALID,25.3993,VALID,84,VALID,0.00195313,
2008-10-22, 00:49:04,VALID,1001.9,VALID,0,VALID,90.593,VALID,0,VALID,25.3409,VALID,84,VALID,0.374219,
2008-10-22, 00:50:04,VALID,1001.91,VALID,0,VALID,90.8218,VALID,0,VALID,25.224,VALID,67,VALID,0.523828,
2008-10-22, 00:51:04,VALID,1001.92,VALID,0,VALID,90.9973,VALID,0,VALID,25.1461,VALID,47,VALID,0.396484,
2008-10-22, 00:52:04,VALID,1001.93,VALID,0,VALID,91.188,VALID,0,VALID,25.0293,VALID,34,VALID,0.551562,
2008-10-22, 00:53:04,VALID,1001.94,VALID,0,VALID,91.8746,VALID,0,VALID,24.9495,VALID,33,VALID,0.354297,
2008-10-22, 00:54:04,VALID,1001.97,VALID,0,VALID,91.8059,VALID,0.100563,VALID,24.9106,VALID,33,VALID,0.447656,
2008-10-22, 00:55:04,VALID,1001.99,VALID,0,VALID,91.9433,VALID,0,VALID,24.8327,VALID,10,VALID,0.647266,
2008-10-22, 00:56:04,VALID,1001.98,VALID,0,VALID,92.462,VALID,0.100563,VALID,24.7743,VALID,9,VALID,0.467578,
2008-10-22, 00:57:04,VALID,1001.99,VALID,0,VALID,92.9808,VALID,0,VALID,24.7529,VALID,357,VALID,0.524609,
2008-10-22, 00:58:04,VALID,1002.02,VALID,0,VALID,93.1105,VALID,0,VALID,24.7937,VALID,354,VALID,0.539844,
2008-10-22, 00:59:04,VALID,1002.02,VALID,0,VALID,93.2478,VALID,0.100563,VALID,24.7937,VALID,343,VALID,0.426172,
2008-10-22, 01:00:04,VALID,1002.06,VALID,0,VALID,93.1639,VALID,0,VALID,24.7743,VALID,343,VALID,0.152344,
2008-10-22, 01:01:04,VALID,1002.06,VALID,0,VALID,93.1486,VALID,0.100563,VALID,24.7548,VALID,343,VALID,0,
2008-10-22, 01:02:04,VALID,1002.07,VALID,0,VALID,92.9808,VALID,0.100563,VALID,24.6769,VALID,343,VALID,0,
2008-10-22, 01:03:04,VALID,1002.12,VALID,0,VALID,93.1715,VALID,0.100563,VALID,24.6574,VALID,343,VALID,0,
2008-10-22, 01:04:04,VALID,1002.13,VALID,0,VALID,93.1486,VALID,0,VALID,24.6185,VALID,343,VALID,0,
2008-10-22, 01:05:04,VALID,1002.11,VALID,0,VALID,93.408,VALID,0,VALID,24.6185,VALID,343,VALID,0,
2008-10-22, 01:06:04,VALID,1002.08,VALID,0,VALID,93.5987,VALID,0.100563,VALID,24.6185,VALID,343,VALID,0.339453,
2008-10-22, 01:07:04,VALID,1002.09,VALID,0,VALID,93.5453,VALID,0,VALID,24.6185,VALID,343,VALID,0.150781,
2008-10-22, 01:08:04,VALID,1002.08,VALID,0,VALID,93.5682,VALID,0.100563,VALID,24.599,VALID,343,VALID,0.204688,
2008-10-22, 01:09:04,VALID,1002.08,VALID,0,VALID,93.5911,VALID,0,VALID,24.5406,VALID,343,VALID,0.399219,
2008-10-22, 01:10:04,VALID,1002.07,VALID,0,VALID,93.6598,VALID,0,VALID,24.5406,VALID,343,VALID,0.276563,
2008-10-22, 01:11:04,VALID,1002.05,VALID,0,VALID,93.5987,VALID,0,VALID,24.5035,VALID,343,VALID,0.199219,
2008-10-22, 01:12:04,VALID,1002.06,VALID,0,VALID,93.7742,VALID,0,VALID,24.4841,VALID,343,VALID,0.464063,
2008-10-22, 01:13:04,VALID,1002.01,VALID,0,VALID,94.0794,VALID,0,VALID,24.5425,VALID,343,VALID,0.461719,
2008-10-22, 01:14:04,VALID,1002.03,VALID,0,VALID,94.0107,VALID,0,VALID,24.523,VALID,343,VALID,0.479297,
2008-10-22, 01:15:04,VALID,1002,VALID,0,VALID,93.8963,VALID,0,VALID,24.4841,VALID,343,VALID,0.364453,
2008-10-22, 01:16:04,VALID,1001.94,VALID,0,VALID,94.0107,VALID,0,VALID,24.4238,VALID,343,VALID,0.432422,
2008-10-22, 01:17:04,VALID,1001.87,VALID,0,VALID,94.1404,VALID,0,VALID,24.4451,VALID,343,VALID,0.283203,
2008-10-22, 01:18:04,VALID,1001.85,VALID,0,VALID,94.2319,VALID,0,VALID,24.4451,VALID,343,VALID,0.333984,
2008-10-22, 01:19:04,VALID,1001.85,VALID,0,VALID,94.3082,VALID,0,VALID,24.4646,VALID,343,VALID,0.320313,
2008-10-22, 01:20:04,VALID,1001.83,VALID,0,VALID,94.2243,VALID,0,VALID,24.4451,VALID,343,VALID,0.348828,
2008-10-22, 01:21:04,VALID,1001.82,VALID,0,VALID,94.4837,VALID,0,VALID,24.4841,VALID,41,VALID,0.307031,
2008-10-22, 01:22:04,VALID,1001.77,VALID,0,VALID,94.2396,VALID,0,VALID,24.4451,VALID,41,VALID,0.289063,
2008-10-22, 01:23:04,VALID,1001.76,VALID,0,VALID,94.2624,VALID,0,VALID,24.3867,VALID,41,VALID,0.00742187,
2008-10-22, 01:24:04,VALID,1001.76,VALID,0,VALID,94.3998,VALID,0.100563,VALID,24.4025,VALID,41,VALID,0.0078125,
2008-10-22, 01:25:04,VALID,1001.74,VALID,0,VALID,94.5676,VALID,0.100563,VALID,24.4628,VALID,41,VALID,0,
2008-10-22, 01:26:04,VALID,1001.72,VALID,0,VALID,94.6134,VALID,0,VALID,24.4822,VALID,41,VALID,0,
2008-10-22, 01:27:04,VALID,1001.71,VALID,0,VALID,94.6897,VALID,0,VALID,24.5212,VALID,41,VALID,0.103906,
2008-10-22, 01:28:04,VALID,1001.73,VALID,0,VALID,94.5905,VALID,0,VALID,24.5212,VALID,41,VALID,0.380469,
2008-10-22, 01:29:04,VALID,1001.68,VALID,0,VALID,94.4379,VALID,0.100563,VALID,24.4822,VALID,41,VALID,0.403906,
2008-10-22, 01:30:04,VALID,1001.67,VALID,0,VALID,94.5447,VALID,0,VALID,24.4628,VALID,41,VALID,0.364844,
2008-10-22, 01:31:04,VALID,1001.68,VALID,0,VALID,94.5523,VALID,0.100563,VALID,24.4609,VALID,41,VALID,0.450391,
2008-10-22, 01:32:04,VALID,1001.65,VALID,0,VALID,94.5829,VALID,0.100563,VALID,24.4609,VALID,39,VALID,0.485547,
2008-10-22, 01:33:04,VALID,1001.64,VALID,0,VALID,94.7812,VALID,0,VALID,24.5017,VALID,39,VALID,0.3125,
2008-10-22, 01:34:04,VALID,1001.63,VALID,0,VALID,94.6973,VALID,0.100563,VALID,24.4804,VALID,37,VALID,0.410156,
2008-10-22, 01:35:04,VALID,1001.62,VALID,0,VALID,94.5981,VALID,0.100563,VALID,24.5017,VALID,34,VALID,0.820313,
2008-10-22, 01:36:04,VALID,1001.64,VALID,0,VALID,94.3998,VALID,0.100563,VALID,24.4238,VALID,25,VALID,0.825391,
2008-10-22, 01:37:04,VALID,1001.66,VALID,0,VALID,94.4684,VALID,0,VALID,24.383,VALID,20,VALID,0.652734,
2008-10-22, 01:38:04,VALID,1001.64,VALID,0,VALID,94.7125,VALID,0.100563,VALID,24.4025,VALID,7,VALID,0.822266,
2008-10-22, 01:39:04,VALID,1001.67,VALID,0,VALID,95.0024,VALID,0,VALID,24.4841,VALID,357,VALID,0.618359,
2008-10-22, 01:40:04,VALID,1001.69,VALID,0,VALID,95.1245,VALID,0,VALID,24.562,VALID,354,VALID,0.664844,
2008-10-22, 01:41:04,VALID,1001.72,VALID,0,VALID,94.9109,VALID,0,VALID,24.5212,VALID,349,VALID,0.605859,
2008-10-22, 01:42:04,VALID,1001.75,VALID,0,VALID,94.8194,VALID,0,VALID,24.523,VALID,349,VALID,0.6,
2008-10-22, 01:43:04,VALID,1001.79,VALID,0,VALID,94.8804,VALID,0,VALID,24.523,VALID,349,VALID,0.420312,
2008-10-22, 01:44:04,VALID,1001.79,VALID,0,VALID,94.8194,VALID,0,VALID,24.523,VALID,349,VALID,0.416016,
2008-10-22, 01:45:04,VALID,1001.77,VALID,0,VALID,94.7049,VALID,0,VALID,24.4628,VALID,349,VALID,0.0703125,
2008-10-22, 01:46:04,VALID,1001.78,VALID,0,VALID,94.6744,VALID,0,VALID,24.4451,VALID,349,VALID,0.16875,
2008-10-22, 01:47:04,VALID,1001.83,VALID,0,VALID,94.6439,VALID,0,VALID,24.4062,VALID,349,VALID,0,
2008-10-22, 01:48:04,VALID,1001.82,VALID,0,VALID,94.7049,VALID,0,VALID,24.4062,VALID,349,VALID,0,
2008-10-22, 01:49:04,VALID,1001.76,VALID,0,VALID,94.8041,VALID,0,VALID,24.4043,VALID,349,VALID,0,
2008-10-22, 01:50:04,VALID,1001.78,VALID,0,VALID,94.8956,VALID,0,VALID,24.4451,VALID,349,VALID,0,
2008-10-22, 01:51:04,VALID,1001.74,VALID,0,VALID,95.0482,VALID,0,VALID,24.4841,VALID,349,VALID,0.308984,
2008-10-22, 01:52:04,VALID,1001.73,VALID,0,VALID,94.9796,VALID,0,VALID,24.523,VALID,349,VALID,0.457031,
2008-10-22, 01:53:04,VALID,1001.69,VALID,0,VALID,94.9109,VALID,0,VALID,24.523,VALID,349,VALID,0.328906,
2008-10-22, 01:54:04,VALID,1001.69,VALID,0,VALID,94.827,VALID,0,VALID,24.5035,VALID,349,VALID,0.30625,
2008-10-22, 01:55:04,VALID,1001.63,VALID,0,VALID,94.8194,VALID,0,VALID,24.5035,VALID,349,VALID,0.170703,
2008-10-22, 01:56:04,VALID,1001.64,VALID,0,VALID,94.8651,VALID,0,VALID,24.5035,VALID,349,VALID,0.0605469,
2008-10-22, 01:57:04,VALID,1001.62,VALID,0,VALID,94.8804,VALID,0,VALID,24.5035,VALID,349,VALID,0.244922,
2008-10-22, 01:58:04,VALID,1001.57,VALID,0,VALID,95.0101,VALID,0,VALID,24.5833,VALID,349,VALID,0.271875,
2008-10-22, 01:59:04,VALID,1001.6,VALID,0,VALID,95.0406,VALID,0,VALID,24.6009,VALID,349,VALID,0.288672,
2008-10-22, 02:00:04,VALID,1001.55,VALID,0,VALID,95.0864,VALID,0,VALID,24.6398,VALID,349,VALID,0.317969,
2008-10-22, 02:01:04,VALID,1001.57,VALID,0,VALID,95.094,VALID,0,VALID,24.6593,VALID,349,VALID,0.355859,
2008-10-22, 02:02:04,VALID,1001.51,VALID,0,VALID,95.0864,VALID,0,VALID,24.6574,VALID,349,VALID,0.48125,
2008-10-22, 02:03:04,VALID,1001.48,VALID,0,VALID,95.0711,VALID,0,VALID,24.7159,VALID,349,VALID,0,
2008-10-22, 02:04:04,VALID,1001.45,VALID,0,VALID,95.0101,VALID,0,VALID,24.7372,VALID,349,VALID,0.0164062,
2008-10-22, 02:05:04,VALID,1001.45,VALID,0,VALID,95.0024,VALID,0,VALID,24.7353,VALID,349,VALID,0,
2008-10-22, 02:06:04,VALID,1001.39,VALID,0,VALID,95.1093,VALID,0,VALID,24.7937,VALID,348,VALID,0.162891,
2008-10-22, 02:07:04,VALID,1001.32,VALID,0,VALID,95.1398,VALID,0,VALID,24.854,VALID,348,VALID,0.25625,
2008-10-22, 02:08:04,VALID,1001.29,VALID,0,VALID,95.1627,VALID,0,VALID,24.9143,VALID,348,VALID,0.269531,
2008-10-22, 02:09:04,VALID,1001.31,VALID,0,VALID,95.0864,VALID,0,VALID,24.9495,VALID,348,VALID,0.297656,
2008-10-22, 02:10:04,VALID,1001.31,VALID,0,VALID,94.9872,VALID,0.100563,VALID,24.9671,VALID,348,VALID,0.323828,
2008-10-22, 02:11:04,VALID,1001.29,VALID,0,VALID,94.9185,VALID,0.100563,VALID,25.0469,VALID,348,VALID,0.252344,
2008-10-22, 02:12:04,VALID,1001.33,VALID,0,VALID,94.827,VALID,0.100563,VALID,25.0663,VALID,348,VALID,0.00546875,
2008-10-22, 02:13:04,VALID,1001.37,VALID,0,VALID,94.7583,VALID,0.100563,VALID,25.0858,VALID,348,VALID,0.0894531,
2008-10-22, 02:14:04,VALID,1001.37,VALID,0,VALID,94.682,VALID,0.100563,VALID,25.0858,VALID,348,VALID,0.347656,
2008-10-22, 02:15:04,VALID,1001.37,VALID,0,VALID,94.6668,VALID,0.100563,VALID,25.1053,VALID,348,VALID,0.114844,
2008-10-22, 02:16:04,VALID,1001.36,VALID,0,VALID,94.6134,VALID,0,VALID,25.1053,VALID,348,VALID,0,
2008-10-22, 02:17:04,VALID,1001.39,VALID,0,VALID,94.5981,VALID,0,VALID,25.1053,VALID,348,VALID,0,
2008-10-22, 02:18:04,VALID,1001.43,VALID,0,VALID,94.56,VALID,0.100563,VALID,25.1248,VALID,348,VALID,0,
2008-10-22, 02:19:04,VALID,1001.46,VALID,0,VALID,94.5676,VALID,0.100563,VALID,25.1442,VALID,348,VALID,0.753906,
2008-10-22, 02:20:04,VALID,1001.49,VALID,0,VALID,94.621,VALID,0.100563,VALID,25.1618,VALID,191,VALID,1.67344,
2008-10-22, 02:21:04,VALID,1001.49,VALID,0,VALID,94.4989,VALID,0.100563,VALID,25.1832,VALID,170,VALID,0.787891,
2008-10-22, 02:22:04,VALID,1001.51,VALID,0,VALID,94.3845,VALID,0.100563,VALID,25.1832,VALID,170,VALID,1.96016,
2008-10-22, 02:23:04,VALID,1001.51,VALID,0,VALID,94.2472,VALID,0.100563,VALID,25.2611,VALID,168,VALID,1.26602,
2008-10-22, 02:24:04,VALID,1001.54,VALID,0,VALID,93.6292,VALID,0,VALID,25.3214,VALID,149,VALID,3.08711,
2008-10-22, 02:25:04,VALID,1001.57,VALID,0,VALID,92.7748,VALID,0,VALID,25.4772,VALID,145,VALID,3.69102,
2008-10-22, 02:26:04,VALID,1001.62,VALID,0,VALID,92.0653,VALID,0,VALID,25.5551,VALID,146,VALID,1.20586,
2008-10-22, 02:27:04,VALID,1001.62,VALID,0,VALID,89.5325,VALID,0,VALID,25.5337,VALID,144,VALID,3.23945,
2008-10-22, 02:28:04,VALID,1001.66,VALID,0,VALID,88.5103,VALID,0,VALID,25.5551,VALID,158,VALID,2.67305,
2008-10-22, 02:29:04,VALID,1001.65,VALID,0,VALID,87.8771,VALID,0,VALID,25.5551,VALID,138,VALID,3.35469,
2008-10-22, 02:30:04,VALID,1001.65,VALID,0,VALID,88.0602,VALID,0,VALID,25.5551,VALID,149,VALID,2.38555,
2008-10-22, 02:31:04,VALID,1001.62,VALID,0,VALID,88.0678,VALID,0,VALID,25.5357,VALID,125,VALID,1.58711,
2008-10-22, 02:32:04,VALID,1001.61,VALID,0,VALID,87.8542,VALID,0,VALID,25.5162,VALID,148,VALID,1.94062,
2008-10-22, 02:33:04,VALID,1001.62,VALID,0,VALID,88.5713,VALID,0,VALID,25.4967,VALID,157,VALID,1.29414,
2008-10-22, 02:34:04,VALID,1001.59,VALID,0,VALID,88.2814,VALID,0,VALID,25.3798,VALID,173,VALID,2.26406,
2008-10-22, 02:35:04,VALID,1001.59,VALID,0,VALID,88.8917,VALID,0,VALID,25.263,VALID,146,VALID,1.51563,
2008-10-22, 02:36:04,VALID,1001.56,VALID,0,VALID,89.4334,VALID,0,VALID,25.1461,VALID,126,VALID,2.0625,
2008-10-22, 02:37:04,VALID,1001.54,VALID,0,VALID,89.6165,VALID,0,VALID,25.0877,VALID,135,VALID,1.3332,
2008-10-22, 02:38:04,VALID,1001.5,VALID,0,VALID,89.8911,VALID,0,VALID,25.0293,VALID,100,VALID,1.05625,
2008-10-22, 02:39:04,VALID,1001.49,VALID,0,VALID,90.1352,VALID,0.100563,VALID,24.9885,VALID,107,VALID,1.27734,
2008-10-22, 02:40:04,VALID,1001.48,VALID,0,VALID,90.3793,VALID,0,VALID,24.9885,VALID,83,VALID,0.565234,
2008-10-22, 02:41:04,VALID,1001.45,VALID,0,VALID,90.3641,VALID,0,VALID,25.0079,VALID,82,VALID,1.84609,
2008-10-22, 02:42:04,VALID,1001.44,VALID,0,VALID,90.4556,VALID,0.100563,VALID,25.0274,VALID,78,VALID,1.33867,
2008-10-22, 02:43:04,VALID,1001.43,VALID,0,VALID,90.6006,VALID,0.100563,VALID,25.0274,VALID,64,VALID,1.06914,
2008-10-22, 02:44:04,VALID,1001.42,VALID,0,VALID,90.6921,VALID,0.100563,VALID,25.0255,VALID,61,VALID,0.736328,
2008-10-22, 02:45:04,VALID,1001.4,VALID,0,VALID,90.8218,VALID,0.100563,VALID,25.006,VALID,34,VALID,0.715625,
2008-10-22, 02:46:04,VALID,1001.42,VALID,0,VALID,90.8218,VALID,0.100563,VALID,24.9885,VALID,24,VALID,1.05273,
2008-10-22, 02:47:04,VALID,1001.41,VALID,0,VALID,90.8676,VALID,0.100563,VALID,24.9885,VALID,58,VALID,0.919531,
2008-10-22, 02:48:04,VALID,1001.42,VALID,0,VALID,90.9668,VALID,0.100563,VALID,24.969,VALID,82,VALID,0.366797,
2008-10-22, 02:49:04,VALID,1001.43,VALID,0,VALID,91.0278,VALID,0,VALID,24.9904,VALID,65,VALID,0.939062,
2008-10-22, 02:50:04,VALID,1001.42,VALID,0,VALID,90.9973,VALID,0,VALID,24.93,VALID,42,VALID,0.885547,
2008-10-22, 02:51:04,VALID,1001.43,VALID,0,VALID,91.0431,VALID,0,VALID,24.9282,VALID,51,VALID,0.501172,
2008-10-22, 02:52:04,VALID,1001.39,VALID,0,VALID,91.1117,VALID,0,VALID,24.9514,VALID,104,VALID,0.843359,
2008-10-22, 02:53:04,VALID,1001.38,VALID,0,VALID,91.1346,VALID,0.100563,VALID,24.9106,VALID,89,VALID,0.748828,
2008-10-22, 02:54:04,VALID,1001.35,VALID,0,VALID,91.249,VALID,0,VALID,24.8892,VALID,69,VALID,0.61875,
2008-10-22, 02:55:04,VALID,1001.31,VALID,0,VALID,91.2643,VALID,0.100563,VALID,24.8911,VALID,82,VALID,0.7375,
2008-10-22, 02:56:04,VALID,1001.32,VALID,0,VALID,91.1956,VALID,0,VALID,24.8716,VALID,62,VALID,0.502734,
2008-10-22, 02:57:04,VALID,1001.31,VALID,0,VALID,91.1346,VALID,0,VALID,24.8522,VALID,39,VALID,1.01836,
2008-10-22, 02:58:04,VALID,1001.37,VALID,0,VALID,91.1804,VALID,0.100563,VALID,24.8327,VALID,65,VALID,0.633594,
2008-10-22, 02:59:04,VALID,1001.44,VALID,0,VALID,91.2262,VALID,0,VALID,24.8327,VALID,86,VALID,0.604688,
2008-10-22, 03:00:04,VALID,1001.48,VALID,0,VALID,91.1651,VALID,0,VALID,24.8132,VALID,52,VALID,0.812109,
2008-10-22, 03:01:04,VALID,1001.48,VALID,0,VALID,91.0888,VALID,0,VALID,24.7937,VALID,92,VALID,0.534375,
2008-10-22, 03:02:04,VALID,1001.49,VALID,0,VALID,90.8752,VALID,0,VALID,24.8132,VALID,93,VALID,1.37656,
2008-10-22, 03:03:04,VALID,1001.51,VALID,0,VALID,90.7913,VALID,0.100563,VALID,24.8132,VALID,99,VALID,1.03047,
2008-10-22, 03:04:04,VALID,1001.53,VALID,0,VALID,90.6616,VALID,0.100563,VALID,24.8132,VALID,99,VALID,1.23711,
2008-10-22, 03:05:04,VALID,1001.53,VALID,0,VALID,90.6158,VALID,0,VALID,24.8132,VALID,94,VALID,0.930859,
2008-10-22, 03:06:04,VALID,1001.49,VALID,0,VALID,90.1047,VALID,0,VALID,24.854,VALID,23,VALID,1.84258,
2008-10-22, 03:07:04,VALID,1001.41,VALID,0,VALID,90.1505,VALID,0,VALID,24.8327,VALID,95,VALID,1.38789,
2008-10-22, 03:08:04,VALID,1001.36,VALID,0,VALID,90.2039,VALID,0,VALID,24.8132,VALID,99,VALID,0.821875,
2008-10-22, 03:09:04,VALID,1001.34,VALID,0,VALID,90.0971,VALID,0,VALID,24.7937,VALID,111,VALID,1.00234,
2008-10-22, 03:10:04,VALID,1001.26,VALID,0,VALID,90.448,VALID,0.100563,VALID,24.8151,VALID,18,VALID,0.483984,
2008-10-22, 03:11:04,VALID,1001.22,VALID,0,VALID,90.3412,VALID,0,VALID,24.7548,VALID,67,VALID,1.01797,
2008-10-22, 03:12:04,VALID,1001.17,VALID,0,VALID,90.4022,VALID,0,VALID,24.7353,VALID,59,VALID,0.864844,
2008-10-22, 03:13:04,VALID,1001.15,VALID,0,VALID,90.5701,VALID,0,VALID,24.6964,VALID,96,VALID,0.430859,
2008-10-22, 03:14:04,VALID,1001.17,VALID,0,VALID,90.593,VALID,0.100563,VALID,24.6556,VALID,119,VALID,1.36563,
2008-10-22, 03:15:04,VALID,1001.14,VALID,0,VALID,90.6921,VALID,0.100563,VALID,24.6574,VALID,126,VALID,0.569141,
2008-10-22, 03:16:04,VALID,1001.23,VALID,0,VALID,90.7608,VALID,0.100563,VALID,24.6574,VALID,136,VALID,0.4625,
2008-10-22, 03:17:04,VALID,1001.22,VALID,0,VALID,90.8295,VALID,0.100563,VALID,24.6574,VALID,136,VALID,0.00195313,
2008-10-22, 03:18:04,VALID,1001.24,VALID,0,VALID,90.8752,VALID,0,VALID,24.638,VALID,109,VALID,0.169141,
2008-10-22, 03:19:04,VALID,1001.27,VALID,0,VALID,90.9363,VALID,0.100563,VALID,24.5972,VALID,109,VALID,0.212891,
2008-10-22, 03:20:04,VALID,1001.27,VALID,0,VALID,91.0812,VALID,0,VALID,24.6185,VALID,101,VALID,0.355859,
2008-10-22, 03:21:04,VALID,1001.28,VALID,0,VALID,91.2872,VALID,0,VALID,24.5796,VALID,101,VALID,0.228906,
2008-10-22, 03:22:04,VALID,1001.29,VALID,0,VALID,91.5923,VALID,0,VALID,24.5406,VALID,95,VALID,0.525,
2008-10-22, 03:23:04,VALID,1001.28,VALID,0,VALID,91.8136,VALID,0,VALID,24.5212,VALID,95,VALID,0.512109,
2008-10-22, 03:24:04,VALID,1001.28,VALID,0,VALID,91.989,VALID,0,VALID,24.4646,VALID,95,VALID,0.305469,
2008-10-22, 03:25:04,VALID,1001.33,VALID,0,VALID,92.1721,VALID,0,VALID,24.4257,VALID,95,VALID,0.138281,
2008-10-22, 03:26:04,VALID,1001.34,VALID,0,VALID,92.3095,VALID,0,VALID,24.3867,VALID,95,VALID,0.183203,
2008-10-22, 03:27:04,VALID,1001.32,VALID,0,VALID,92.462,VALID,0,VALID,24.3673,VALID,94,VALID,0.298438,
2008-10-22, 03:28:04,VALID,1001.31,VALID,0,VALID,92.5307,VALID,0,VALID,24.3283,VALID,30,VALID,0.3875,
2008-10-22, 03:29:04,VALID,1001.29,VALID,0,VALID,92.7672,VALID,0,VALID,24.3283,VALID,20,VALID,0.6375,
2008-10-22, 03:30:04,VALID,1001.31,VALID,0,VALID,92.9808,VALID,0,VALID,24.2875,VALID,2,VALID,0.576563,
2008-10-22, 03:31:04,VALID,1001.3,VALID,0,VALID,93.1563,VALID,0,VALID,24.2894,VALID,2,VALID,0.483984,
2008-10-22, 03:32:04,VALID,1001.31,VALID,0,VALID,93.2478,VALID,0,VALID,24.2486,VALID,3,VALID,0.501953,
2008-10-22, 03:33:04,VALID,1001.33,VALID,0,VALID,93.3699,VALID,0,VALID,24.2504,VALID,359,VALID,0.603906,
2008-10-22, 03:34:04,VALID,1001.35,VALID,0,VALID,93.3699,VALID,0,VALID,24.2486,VALID,30,VALID,0.989062,
2008-10-22, 03:35:04,VALID,1001.36,VALID,0,VALID,93.3851,VALID,0,VALID,24.2894,VALID,341,VALID,0.485547,
2008-10-22, 03:36:04,VALID,1001.39,VALID,0,VALID,93.2402,VALID,0,VALID,24.3478,VALID,9,VALID,0.771875,
2008-10-22, 03:37:04,VALID,1001.4,VALID,0,VALID,93.0952,VALID,0,VALID,24.3673,VALID,9,VALID,0.253516,
2008-10-22, 03:38:04,VALID,1001.41,VALID,0,VALID,93.0189,VALID,0,VALID,24.3867,VALID,9,VALID,0.182422,
2008-10-22, 03:39:04,VALID,1001.42,VALID,0,VALID,93.0113,VALID,0,VALID,24.4238,VALID,356,VALID,0.611328,
2008-10-22, 03:40:04,VALID,1001.43,VALID,0,VALID,92.9045,VALID,0,VALID,24.4822,VALID,356,VALID,0.059375,
2008-10-22, 03:41:04,VALID,1001.39,VALID,0,VALID,92.7748,VALID,0.100563,VALID,24.5017,VALID,5,VALID,0.457812,
2008-10-22, 03:42:04,VALID,1001.42,VALID,0,VALID,92.6375,VALID,0.100563,VALID,24.5388,VALID,25,VALID,0.149219,
2008-10-22, 03:43:04,VALID,1001.43,VALID,0,VALID,92.4849,VALID,0,VALID,24.5796,VALID,25,VALID,0.184766,